Content
SEND FEEDBACK

Daily
Averages
Monthly
Summary
United States of America

CAPUTA, SOUTH DAKOTA


Home > North America > United States > South Dakota
Elevation: 3149 feet     Latitude: 44 03N     Longitude: 103 04W

WEATHER
 
SELECT A DAY
Number of Records: 200,374;   Date Range: 1/1/95 - 8/12/14
 
SHARE

PRINT THIS DATA

[ ← Previous Day ]
WEATHER ALMANAC - JULY 15, 2013
[ Next Day → ]
[ °C ]   °F
We're sorry. There is no daily almanac available for Caputa, South Dakota on July 15, 2013.
WEATHER BY HOUR - JULY 15, 2013
[ °C ]   °F
Local TimeTemperatureDewpointHumidityBarometerVisibilityWind DirectionWind SpeedGust SpeedPrecipitationEventsConditions
1:12 AM64.4 °F60.8 °F88 %30.21 in10.0 miCalmOvercast
1:52 AM64.9 °F60.1 °F84 %30.15 in10.0 miCalmOvercast
2:20 AM64.4 °F60.8 °F88 %30.19 in10.0 miCalmOvercast
2:52 AM64.9 °F60.1 °F84 %30.13 in10.0 miCalmOvercast
3:26 AM64.4 °F60.8 °F88 %30.18 in10.0 miCalmOvercast
3:52 AM64.9 °F61.0 °F87 %30.12 in10.0 miSE (140°)3.5 mphOvercast
4:52 AM64.9 °F61.0 °F87 %30.12 in10.0 miSE (140°)3.5 mphOvercast
5:33 AM64.4 °F62.6 °F94 %30.16 in10.0 miESE (110°)5.8 mphOvercast
5:52 AM64.9 °F62.1 °F90 %30.11 in10.0 miESE (120°)5.8 mphOvercast
6:52 AM64.9 °F62.1 °F90 %30.12 in9.0 miSE (140°)9.2 mphOvercast
7:52 AM68.0 °F63.0 °F84 %30.12 in10.0 miSE (140°)9.2 mphOvercast
8:52 AM69.1 °F63.0 °F81 %30.11 in10.0 miSouth (170°)10.4 mphOvercast
9:52 AM71.1 °F63.0 °F75 %30.09 in10.0 miSouth (170°)12.7 mphOvercast
10:29 AM75.2 °F64.4 °F69 %30.14 in10.0 miSouth (190°)12.7 mphPartly Cloudy
10:52 AM77.0 °F64.0 °F64 %30.06 in10.0 miSSW (200°)13.8 mph21.9 mphPartly Cloudy
11:52 AM80.1 °F64.0 °F58 %30.05 in10.0 miSouth (170°)15.0 mph23.0 mphClear
12:52 PM81.0 °F64.0 °F56 %30.03 in10.0 miSouth (170°)19.6 mph27.6 mphMostly Cloudy
1:52 PM84.0 °F64.9 °F53 %30.00 in10.0 miSouth (190°)13.8 mph25.3 mphScattered Clouds
2:52 PM86.0 °F64.0 °F48 %29.96 in10.0 miSouth (190°)17.3 mph26.5 mphMostly Cloudy
3:52 PM88.0 °F63.0 °F43 %29.94 in10.0 miSouth (180°)17.3 mph25.3 mphMostly Cloudy
4:52 PM87.1 °F62.1 °F43 %29.93 in10.0 miSouth (190°)20.7 mph27.6 mphMostly Cloudy
5:52 PM87.1 °F60.1 °F40 %29.91 in10.0 miSouth (170°)21.9 mph29.9 mphScattered Clouds
6:52 PM84.9 °F59.0 °F41 %29.93 in10.0 miSSE (160°)19.6 mph25.3 mphClear
7:52 PM82.0 °F55.0 °F39 %29.94 in10.0 miSouth (170°)19.6 mph26.5 mphClear
8:52 PM77.0 °F54.0 °F45 %29.96 in10.0 miSSE (150°)12.7 mphClear
9:52 PM75.0 °F55.0 °F50 %29.98 in10.0 miSSE (160°)10.4 mphClear
10:52 PM71.1 °F55.0 °F57 %29.99 in10.0 miSouth (170°)10.4 mphClear
11:52 PM70.0 °F55.0 °F59 %29.98 in10.0 miSSE (160°)6.9 mphClear
Hourly data recorded from KRAP, located miles away from Caputa, South Dakota







STORIES FROM OUR PARTNERS